Princeton, MN

7:12 PM CDT on May 24, 2017 (GMT -0500)
Princeton Municipal

Weather History for KPNM - October, 2013

Change the Weather History Date:

Friday, October 11, 2013

  Actual Average Record
Temperature  
Mean Temperature 64 °F -  
Max Temperature 73 °F 57 °F 82 °F (2015)
Min Temperature 55 °F 35 °F 21 °F (2012)
Degree Days  
Heating Degree Days 1    
Growing Degree Days 14 (Base 50)    
Moisture  
Dew Point 54 °F    
Average Humidity 69    
Maximum Humidity 88    
Minimum Humidity 50    
Precipitation  
Precipitation 0.10 in - - ()
Sea Level Pressure  
Sea Level Pressure 29.74 in    
Wind  
Wind Speed 10 mph (SE)    
Max Wind Speed 26 mph    
Max Gust Speed 37 mph    
Visibility 10 miles    
Events Rain , Thunderstorm    
Averages and records for this station are not official NWS values.
T = Trace of Precipitation, MM = Missing Value Source: NWS Daily Summary

Daily Weather History Graph

Daily Weather History Graph

Search for Another Location

Airport or City:

Trip Planner

Search our weather history database for the weather conditions in past years. The results will help you decide how hot, cold, wet, or windy it might be!

Date:

Astronomy

Oct. 11, 2013 Rise Set
Actual Time 7:25 AM CDT 6:35 PM CDT
Civil Twilight 6:56 AM CDT 7:05 PM CDT
Nautical Twilight 6:21 AM CDT 7:39 PM CDT
Astronomical Twilight 5:47 AM CDT 8:13 PM CDT
Moon 2:17 PM CDT (10/11) No Moon Set
Length of Visible Light 12h 09m
Length of Day
11h 09m
Waxing Crescent, 47% of the Moon is Illuminated
Oct 11
Waxing Crescent
Oct 11
First Quarter
Oct 18
Full
Oct 26
Last Quarter
Nov 3
New

Hourly Weather History & Observations

Time (CDT) Temp. Dew Point Humidity Pressure Visibility Wind Dir Wind Speed Gust Speed Precip Events Conditions
12:14 AM 60.8 °F 51.8 °F 72% 29.87 in 10.0 mi East 6.9 mph - N/A   Clear
12:33 AM 59.0 °F 51.8 °F 77% 29.87 in 10.0 mi East 5.8 mph - N/A   Clear
12:53 AM 59.0 °F 51.8 °F 77% 29.87 in 10.0 mi ESE 5.8 mph - N/A   Clear
1:13 AM 59.0 °F 51.8 °F 77% 29.87 in 10.0 mi ESE 6.9 mph - N/A   Clear
1:33 AM 57.2 °F 51.8 °F 82% 29.88 in 10.0 mi ESE 5.8 mph - N/A   Clear
1:54 AM 59.0 °F 51.8 °F 77% 29.87 in 10.0 mi ESE 6.9 mph - N/A   Clear
2:13 AM 59.0 °F 51.8 °F 77% 29.88 in 10.0 mi ESE 5.8 mph - N/A   Clear
2:33 AM 57.2 °F 51.8 °F 82% 29.88 in 10.0 mi East 4.6 mph - N/A   Clear
2:53 AM 57.2 °F 51.8 °F 82% 29.88 in 10.0 mi East 4.6 mph - N/A   Clear
3:13 AM 57.2 °F 51.8 °F 82% 29.87 in 10.0 mi East 3.5 mph - N/A   Clear
3:33 AM 57.2 °F 51.8 °F 82% 29.88 in 10.0 mi East 3.5 mph - N/A   Clear
3:53 AM 55.4 °F 51.8 °F 88% 29.87 in 10.0 mi East 4.6 mph - N/A   Clear
4:13 AM 57.2 °F 51.8 °F 82% 29.87 in 10.0 mi ESE 4.6 mph - N/A   Clear
4:33 AM 57.2 °F 51.8 °F 82% 29.87 in 10.0 mi ESE 5.8 mph - N/A   Clear
4:53 AM 55.4 °F 51.8 °F 88% 29.87 in 10.0 mi East 4.6 mph - N/A   Clear
5:13 AM 55.4 °F 51.8 °F 88% 29.87 in 10.0 mi East 5.8 mph - N/A   Clear
5:33 AM 57.2 °F 51.8 °F 82% 29.87 in 10.0 mi East 4.6 mph - N/A   Clear
5:54 AM 55.4 °F 51.8 °F 88% 29.87 in 10.0 mi East 5.8 mph - N/A   Clear
6:13 AM 55.4 °F 51.8 °F 88% 29.87 in 10.0 mi East 6.9 mph - N/A   Clear
6:33 AM 55.4 °F 51.8 °F 88% 29.86 in 10.0 mi East 8.1 mph - N/A   Clear
6:53 AM 55.4 °F 51.8 °F 88% 29.85 in 10.0 mi ESE 8.1 mph - N/A   Clear
7:13 AM 55.4 °F 51.8 °F 88% 29.85 in 10.0 mi East 6.9 mph - N/A   Clear
7:33 AM 55.4 °F 51.8 °F 88% 29.84 in 10.0 mi East 10.4 mph - N/A   Clear
7:53 AM 55.4 °F 51.8 °F 88% 29.84 in 10.0 mi ESE 9.2 mph - N/A   Clear
8:13 AM 57.2 °F 51.8 °F 82% 29.84 in 10.0 mi ESE 9.2 mph - N/A   Clear
8:33 AM 57.2 °F 51.8 °F 82% 29.82 in 10.0 mi ESE 10.4 mph - N/A   Clear
8:53 AM 59.0 °F 53.6 °F 82% 29.82 in 10.0 mi ESE 13.8 mph 19.6 mph N/A   Clear
9:13 AM 59.0 °F 53.6 °F 82% 29.81 in 10.0 mi ESE 11.5 mph 19.6 mph N/A   Clear
9:34 AM 60.8 °F 53.6 °F 77% 29.81 in 10.0 mi ESE 12.7 mph - N/A   Clear
9:53 AM 60.8 °F 53.6 °F 77% 29.81 in 10.0 mi ESE 15.0 mph 18.4 mph N/A   Clear
10:13 AM 64.4 °F 53.6 °F 68% 29.79 in 10.0 mi ESE 12.7 mph 20.7 mph N/A   Clear
10:33 AM 66.2 °F 53.6 °F 64% 29.79 in 10.0 mi ESE 15.0 mph 24.2 mph N/A   Clear
10:53 AM 66.2 °F 53.6 °F 64% 29.78 in 10.0 mi ESE 13.8 mph 25.3 mph N/A   Clear
11:13 AM 68.0 °F 55.4 °F 64% 29.74 in 10.0 mi East 17.3 mph 25.3 mph N/A   Clear
11:33 AM 69.8 °F 55.4 °F 60% 29.75 in 10.0 mi ESE 15.0 mph 25.3 mph N/A   Clear
11:53 AM 71.6 °F 55.4 °F 57% 29.74 in 10.0 mi SE 19.6 mph 29.9 mph N/A   Clear
12:13 PM 71.6 °F 55.4 °F 57% 29.72 in 10.0 mi SE 19.6 mph 28.8 mph N/A   Clear
12:33 PM 71.6 °F 55.4 °F 57% 29.72 in 10.0 mi ESE 17.3 mph 26.5 mph N/A   Clear
12:53 PM 73.4 °F 55.4 °F 53% 29.68 in 10.0 mi ESE 20.7 mph 27.6 mph N/A   Clear
1:13 PM 73.4 °F 55.4 °F 53% 29.68 in 10.0 mi ESE 17.3 mph 31.1 mph N/A   Clear
1:33 PM 73.4 °F 53.6 °F 50% 29.68 in 10.0 mi SE 23.0 mph 28.8 mph N/A   Clear
1:53 PM 73.4 °F 53.6 °F 50% 29.68 in 10.0 mi SE 21.9 mph 27.6 mph N/A   Clear
2:13 PM 71.6 °F 53.6 °F 53% 29.66 in 10.0 mi SE 21.9 mph 32.2 mph N/A   Clear
2:33 PM 73.4 °F 53.6 °F 50% 29.64 in 10.0 mi ESE 16.1 mph 27.6 mph N/A   Clear
2:54 PM 73.4 °F 53.6 °F 50% 29.64 in 10.0 mi ESE 15.0 mph 28.8 mph N/A   Clear
3:13 PM 69.8 °F 55.4 °F 60% 29.64 in 10.0 mi ESE 23.0 mph 31.1 mph N/A Rain Light Rain
3:33 PM 71.6 °F 53.6 °F 53% 29.62 in 10.0 mi ESE 18.4 mph 26.5 mph N/A   Mostly Cloudy
3:54 PM 71.6 °F 53.6 °F 53% 29.63 in 10.0 mi SE 18.4 mph 25.3 mph N/A Thunderstorm Overcast
4:13 PM 71.6 °F 53.6 °F 53% 29.62 in 10.0 mi SE 17.3 mph 21.9 mph N/A   Overcast
4:33 PM 71.6 °F 53.6 °F 53% 29.63 in 10.0 mi SE 18.4 mph 27.6 mph N/A   Overcast
4:53 PM 71.6 °F 53.6 °F 53% 29.64 in 10.0 mi SE 16.1 mph 23.0 mph N/A   Overcast
5:13 PM 71.6 °F 53.6 °F 53% 29.63 in 10.0 mi SE 17.3 mph 26.5 mph N/A   Overcast
5:33 PM 71.6 °F 53.6 °F 53% 29.63 in 10.0 mi SE 16.1 mph 25.3 mph N/A   Overcast
5:53 PM 71.6 °F 53.6 °F 53% 29.63 in 10.0 mi SE 18.4 mph 27.6 mph N/A   Overcast
6:13 PM 71.6 °F 53.6 °F 53% 29.64 in 10.0 mi SE 13.8 mph 19.6 mph N/A   Mostly Cloudy
6:33 PM 71.6 °F 53.6 °F 53% 29.64 in 10.0 mi SE 12.7 mph 20.7 mph N/A   Overcast
6:53 PM 71.6 °F 53.6 °F 53% 29.64 in 10.0 mi SSE 16.1 mph - N/A   Mostly Cloudy
7:13 PM 71.6 °F 53.6 °F 53% 29.63 in 10.0 mi SSE 17.3 mph 28.8 mph N/A   Scattered Clouds
7:33 PM 71.6 °F 53.6 °F 53% 29.62 in 10.0 mi SE 17.3 mph 29.9 mph N/A   Scattered Clouds
7:53 PM 71.6 °F 53.6 °F 53% 29.61 in 10.0 mi SE 23.0 mph 36.8 mph N/A   Clear
8:13 PM 71.6 °F 55.4 °F 57% 29.60 in 10.0 mi SE 19.6 mph 28.8 mph N/A   Clear
8:33 PM 71.6 °F 55.4 °F 57% 29.59 in 10.0 mi SE 20.7 mph 32.2 mph N/A   Clear
8:53 PM 71.6 °F 57.2 °F 60% 29.59 in 10.0 mi SE 20.7 mph 33.4 mph N/A   Clear
9:13 PM 69.8 °F 57.2 °F 64% 29.59 in 10.0 mi SSE 20.7 mph 36.8 mph N/A   Clear
9:33 PM 69.8 °F 57.2 °F 64% 29.60 in 10.0 mi SSE 26.5 mph 35.7 mph N/A   Mostly Cloudy
9:53 PM 69.8 °F 60.8 °F 73% 29.60 in 10.0 mi SSE 18.4 mph 29.9 mph N/A Rain Light Rain
10:13 PM 64.4 °F 57.2 °F 77% 29.64 in 7.0 mi SSW 16.1 mph 32.2 mph 0.06 in Rain Rain
10:33 PM 62.6 °F 57.2 °F 82% 29.62 in 10.0 mi South 8.1 mph 21.9 mph 0.10 in   Mostly Cloudy
10:53 PM 64.4 °F 59.0 °F 83% 29.63 in 10.0 mi South 11.5 mph - 0.10 in   Scattered Clouds
11:13 PM 64.4 °F 57.2 °F 77% 29.64 in 10.0 mi South 10.4 mph 17.3 mph N/A   Clear
11:33 PM 62.6 °F 55.4 °F 77% 29.65 in 10.0 mi South 11.5 mph 18.4 mph N/A   Clear
11:53 PM 60.8 °F 55.4 °F 82% 29.66 in 10.0 mi South 9.2 mph - N/A   Clear